Weather History for Cleveland, OH

Change the Weather History Date:

Sunday, December 30, 2012

  Actual Average Record
Temperature  
Mean Temperature 24 °F 29 °F  
Max Temperature 29 °F 35 °F 63 °F (1971)
Min Temperature 19 °F 23 °F -12 °F (1880)
Degree Days  
Heating Degree Days 41 36  
Month to date heating degree days 798 975  
Since 1 July heating degree days 2043 2070  
Cooling Degree Days 0 0  
Month to date cooling degree days 0 0  
Year to date cooling degree days 1096 817  
Moisture  
Dew Point 19 °F    
Average Humidity 81    
Maximum Humidity 92    
Minimum Humidity 69    
Precipitation  
Precipitation 0.03 in 0.10 in 2.39 in (1992)
Month to date precipitation 3.78 3.00  
Year to date precipitation 44.47 39.04  
Snow  
Snow 0.30 in 0.50 in - ()
Month to date snowfall 13.7 13.5  
Since 1 July snowfall 14.0 18.0  
Snow Depth 8.00 in    
Sea Level Pressure  
Sea Level Pressure 30.28 in    
Wind  
Wind Speed 12 mph (WSW)    
Max Wind Speed 24 mph    
Max Gust Speed 28 mph    
Visibility 7 miles    
Events Snow    
T = Trace of Precipitation, MM = Missing Value Source: NWS Daily Summary

Daily Weather History Graph

Daily Weather History Graph

Search for Another Location

Airport:

Trip Planner

Search our weather history database for the weather conditions in past years. The results will help you decide how hot, cold, wet, or windy it might be!

Date:

Astronomy

Dec. 30, 2012 Rise Set
Actual Time 7:53 AM EST 5:07 PM EST
Civil Twilight 7:22 AM EST 5:38 PM EST
Nautical Twilight 6:47 AM EST 6:13 PM EST
Astronomical Twilight 6:13 AM EST 6:46 PM EST
Moon 7:38 PM EST (12/30) 9:00 AM EST (12/30)
Length of Visible Light 10h 16m
Length of Day
9h 13m
Waning Gibbous, 95% of the Moon is Illuminated
Dec 30
Waning Gibbous
Jan 4
Last Quarter
Jan 11
New
Jan 18
First Quarter
Jan 26
Full

Hourly Weather History & Observations

Time (EST) Temp. Windchill Dew Point Humidity Pressure Visibility Wind Dir Wind Speed Gust Speed Precip Events Conditions
12:51 AM 28.9 °F 18.2 °F 21.9 °F 75% 30.06 in 10.0 mi WNW 13.8 mph 23.0 mph N/A   Overcast
1:51 AM 28.0 °F 16.5 °F 21.0 °F 75% 30.09 in 10.0 mi WNW 15.0 mph - N/A   Overcast
2:51 AM 28.4 °F 18.5 °F 19.4 °F 69% 30.11 in 10.0 mi WNW 11.5 mph 21.9 mph N/A   Overcast
3:51 AM 28.0 °F 17.5 °F 21.0 °F 75% 30.17 in 10.0 mi WNW 12.7 mph - N/A   Overcast
4:51 AM 27.0 °F 16.1 °F 21.9 °F 81% 30.20 in 7.0 mi West 12.7 mph - 0.00 in Snow Light Snow
5:22 AM 26.6 °F 16.8 °F 23.0 °F 86% 30.18 in 2.5 mi West 10.4 mph - 0.00 in Snow Light Snow
5:51 AM 26.1 °F 14.5 °F 21.9 °F 84% 30.23 in 3.0 mi West 13.8 mph - 0.00 in Snow Light Snow
6:09 AM 26.6 °F 17.5 °F 21.2 °F 80% 30.21 in 3.0 mi West 9.2 mph - 0.01 in Snow Light Snow
6:21 AM 26.6 °F 15.2 °F 21.2 °F 80% 30.22 in 2.0 mi West 13.8 mph - 0.01 in Snow Light Snow
6:35 AM 26.6 °F 15.7 °F 23.0 °F 86% 30.22 in 3.0 mi West 12.7 mph - 0.01 in Snow Light Snow
6:51 AM 26.1 °F 15.6 °F 23.0 °F 88% 30.26 in 2.5 mi West 11.5 mph - 0.01 in Snow Light Snow
7:43 AM 26.6 °F 18.2 °F 24.8 °F 93% 30.25 in 2.5 mi WSW 8.1 mph - 0.00 in Snow Light Snow
7:51 AM 26.1 °F 17.6 °F 24.1 °F 92% 30.28 in 3.0 mi WSW 8.1 mph - 0.01 in Snow Light Snow
8:51 AM 27.0 °F 16.7 °F 24.1 °F 89% 30.31 in 2.0 mi West 11.5 mph - 0.00 in Snow Light Snow
9:08 AM 26.6 °F 15.7 °F 23.0 °F 86% 30.29 in 3.0 mi WSW 12.7 mph - 0.00 in Snow Light Snow
9:51 AM 26.1 °F 14.0 °F 23.0 °F 88% 30.33 in 3.0 mi WSW 15.0 mph - 0.00 in Snow Light Snow
10:51 AM 26.1 °F 12.7 °F 21.9 °F 84% 30.37 in 6.0 mi WSW 18.4 mph - 0.00 in   Overcast
11:51 AM 25.0 °F 10.9 °F 21.0 °F 85% 30.36 in 9.0 mi West 19.6 mph - 0.00 in Snow Light Snow
12:39 PM 24.8 °F 12.4 °F 19.4 °F 80% 30.31 in 9.0 mi WSW 15.0 mph - 0.00 in Snow Light Snow
12:51 PM 25.0 °F 12.6 °F 19.9 °F 81% 30.34 in 9.0 mi SW 15.0 mph - 0.00 in   Overcast
1:51 PM 23.0 °F 11.1 °F 18.0 °F 81% 30.36 in 9.0 mi SW 12.7 mph 21.9 mph N/A   Overcast
2:51 PM 21.9 °F 8.7 °F 16.0 °F 78% 30.35 in 9.0 mi SSW 15.0 mph - N/A   Overcast
3:51 PM 21.9 °F 10.4 °F 17.1 °F 82% 30.37 in 10.0 mi SW 11.5 mph - N/A   Overcast
4:27 PM 21.2 °F 7.3 °F 15.8 °F 80% 30.35 in 10.0 mi SW 16.1 mph - N/A   Overcast
4:51 PM 21.0 °F 11.4 °F 15.1 °F 78% 30.38 in 10.0 mi SW 8.1 mph - N/A   Overcast
5:51 PM 19.9 °F 12.1 °F 14.0 °F 78% 30.36 in 10.0 mi SSW 5.8 mph - N/A   Scattered Clouds
6:51 PM 19.0 °F 9.0 °F 14.0 °F 81% 30.36 in 10.0 mi SSW 8.1 mph - N/A   Clear
7:51 PM 19.0 °F 6.8 °F 14.0 °F 81% 30.37 in 10.0 mi SSW 11.5 mph - N/A   Clear
8:51 PM 19.9 °F 7.9 °F 14.0 °F 78% 30.36 in 10.0 mi SSW 11.5 mph - N/A   Clear
9:51 PM 19.9 °F 9.3 °F 14.0 °F 78% 30.36 in 10.0 mi SSW 9.2 mph - N/A   Partly Cloudy
10:51 PM 19.9 °F 10.1 °F 14.0 °F 78% 30.33 in 10.0 mi South 8.1 mph - N/A   Scattered Clouds
11:51 PM 19.9 °F 9.3 °F 14.0 °F 78% 30.32 in 10.0 mi South 9.2 mph - N/A   Scattered Clouds